Regional Weather Roundup
Issued by NWS

Home | Current Version | Previous Version | Graphics & Text | Print | Product List | Glossary On
Versions: 1 2 3 4 5 6 7 8 9 10 11 12 13 14 15 16 17 18 19 20 21 22 23 24 25 26 27
000
ASUS45 KPSR 192310
RWRAZ

ARIZONA HOURLY REGIONAL WEATHER ROUNDUP
NATIONAL WEATHER SERVICE PHOENIX AZ
400 PM MST MON FEB 19 2018

NOTE: FAIR INDICATES FEW OR NO CLOUDS BELOW 12,000 FEET WITH NO
SIGNIFICANT WEATHER AND/OR OBSTRUCTIONS TO VISIBILITY.

AZZ001>003-036-200000-
NORTHWEST ARIZONA

CITY           SKY/WX    TMP DP  RH WIND       PRES   REMARKS
BULLHEAD CITY  MOSUNNY   54  14  20 NW16G24   29.75R
KINGMAN        CLOUDY    41  14  33 W9G25     29.70R
$$

AZZ004>008-015-016-018-200000-
NORTH CENTRAL ARIZONA

CITY           SKY/WX    TMP DP  RH WIND       PRES   REMARKS
GRAND CANYON   CLOUDY    27   8  44 SW25G33   29.57R WCI  12
WILLIAMS       LGT SNOW  25  18  74 SW13G21   29.59S WCI  13
PRESCOTT       LGT SNOW  30  25  81 W16G24    29.69R VSB 1   WCI  19
FLAGSTAFF      LGT SNOW  26  20  77 SW21G36   29.56R WCI  12
PAYSON         DRIZZLE   37  32  81 W21G31    29.64R WCI  27
PAGE           MOSUNNY   39  15  37 W10G28    29.53R WCI  32
$$

AZZ009>014-017-200000-
NORTHEAST ARIZONA

CITY           SKY/WX    TMP DP  RH WIND       PRES   REMARKS
WINSLOW        LGT RAIN  41  35  79 W23G40    29.59R
SAINT JOHNS    MOSUNNY   51  27  39 SW36G51   29.51F
WINDOW ROCK    PTSUNNY   46  25  43 SW38G54   29.49R
SHOW LOW       LGT RAIN  41  32  70 S28G45    29.57R
$$

AZZ540-542>544-546-548-200000-
GREATER PHOENIX AREA

CITY           SKY/WX    TMP DP  RH WIND       PRES   REMARKS
PHOENIX        CLOUDY    60  31  33 W24G31    29.68S
BUCKEYE        PTSUNNY   63  23  22 W24G30    29.71S
GLENDALE       CLOUDY    61  28  29 SW10      29.71S
LUKE AFB       PTSUNNY   61  27  27 W14G23    29.68S
DEER VALLEY    CLOUDY    58  29  33 W17G25    29.68S
SCOTTSDALE     CLOUDY    58  31  35 W13G25    29.70S
MESA-FALCON    PTSUNNY   59  34  38 W24G32    29.68R
MESA-GATEWAY   CLOUDY    61  36  39 W28G35    29.70R
CHANDLER       PTSUNNY   63  32  31 W26       29.68R BLWGDUST
$$

AZZ539-553-200000-
SOUTHWEST MARICOPA COUNTY AND PINAL COUNTY

CITY           SKY/WX    TMP DP  RH WIND       PRES   REMARKS
CASA GRANDE      N/A     59  36  42 W24G30    29.70R
GILA BEND      PTSUNNY   62  22  21 W28G36    29.72R
$$

AZZ503-504-507>509-200000-
SOUTHEAST ARIZONA

CITY           SKY/WX    TMP DP  RH WIND       PRES   REMARKS
TUCSON         PTSUNNY   64  38  38 SW23G35   29.74S
DAVIS-MONTHAN  MOSUNNY   64  40  41 SW21G32   29.72S
RYAN FIELD     PTSUNNY   64  39  39 SW29G41   29.73F
NOGALES        MOSUNNY   59  38  45 S26G37    29.80S
SIERRA VISTA   MOSUNNY   58  35  43 SW13G33   29.78F
DOUGLAS        MOSUNNY   59  33  37 SW24G36   29.78F
SAFFORD        CLOUDY    66  35  31 N6        29.62F
$$

AZZ532-200000-
SOUTHWEST ARIZONA

CITY           SKY/WX    TMP DP  RH WIND       PRES   REMARKS
YUMA           PTSUNNY   64  18  17 W24G33    29.80S
$$

CAZ041-043-047-048-061-525>527-560>570-200000-
SOUTHERN CALIFORNIA

CITY           SKY/WX    TMP DP  RH WIND       PRES   REMARKS
DOWNTOWN L.A.  CLOUDY    57  33  40 W10G23    29.87S
L.A. AIRPORT   MOSUNNY   57  37  47 W32       29.89F
SAN DIEGO      MOSUNNY   60  34  37 W23       29.98R
BURBANK        PTSUNNY   53  18  25 NW18G28   29.86R
ONTARIO        CLOUDY    53  26  35 SW20G28   29.85F
RIVERSIDE      PTSUNNY   55  26  32 W22G31    29.86R
PALM SPRINGS   MOSUNNY   62   7  11 NW18G29   29.80R
EL CENTRO NAS  LGT RAIN  64  14  14 W24G37    29.84S
IMPERIAL       SUNNY     63  16  16 W24G33    29.81S
BLYTHE         SUNNY     63  -4   6 NW22G31   29.76S
NEEDLES        MOSUNNY   59   2  10 W22G39    29.75R
$$

NVZ020-UTZ003-200000-
SOUTHERN NEVADA-UTAH

CITY           SKY/WX    TMP DP  RH WIND       PRES   REMARKS
LAS VEGAS      PTSUNNY   50  -1  12 NW18G29   29.70R
SALT LAKE CITY CLOUDY    30  17  58 N15       29.62R WCI  19
$$

NMZ009-TXZ055-200000-
NEW MEXICO-WEST TEXAS

CITY           SKY/WX    TMP DP  RH WIND       PRES   REMARKS
ALBUQUERQUE    PTSUNNY   56  33  42 SW24G33   29.56F
EL PASO        MOSUNNY   70  37  29 W29G35    29.69F
$$


........................KEY........................
SKY/WX - SKY CONDITION/WEATHER
TMP    - TEMPERATURE IN FAHRENHEIT
DP     - DEW POINT IN FAHRENHEIT
RH     - RELATIVE HUMIDITY IN PERCENT
WIND   - DIRECTION AND SPEED IN MILES PER HOUR (MPH)
VRB    - VARIABLE WIND DIRECTION
PRES   - MEAN SEA LEVEL PRESSURE IN INCHES OF MERCURY
         F - FALLING PRESSURE   R - RISING PRESSURE
         S - STEADY PRESSURE
VSB    - VISIBILITY IN MILES
HX     - HEAT INDEX IN FAHRENHEIT
WCI    - WIND CHILL INDEX IN FAHRENHEIT
TC     - TEMPERATURE IN CELSIUS WHICH IS ALSO KNOWN AS
         TEMPERATURE IN CENTIGRADE
AFB    - AIR FORCE BASE
         LUKE AFB IS LUKE AIR FORCE BASE
         DAVIS-MONTHAN IS DAVIS-MONTHAN AIR FORCE BASE
NAS    - NAVAL AIR STATION
         EL CENTRO NAS IS EL CENTRO NAVAL AIR STATION
N/A    - NOT AVAILABLE





USA.gov is the U.S. government's official web portal to all federal, state and local government web resources and services.